TimeCDT,TemperatureF,Dew PointF,Humidity,Sea Level PressureIn,VisibilityMPH,Wind Direction,Wind SpeedMPH,Gust SpeedMPH,PrecipitationIn,Events,Conditions,WindDirDegrees,DateUTC
12:12 AM,35.6,26.6,70,29.92,10.0,NW,12.7,17.3,N/A,,Overcast,310,2013-10-21 05:12:00
12:33 AM,35.6,26.6,70,29.93,10.0,NW,10.4,-,N/A,,Overcast,310,2013-10-21 05:33:00
12:53 AM,35.6,26.6,70,29.93,10.0,NW,8.1,-,N/A,,Overcast,310,2013-10-21 05:53:00
1:12 AM,35.6,26.6,70,29.93,10.0,NW,9.2,17.3,N/A,,Overcast,310,2013-10-21 06:12:00
1:33 AM,35.6,24.8,65,29.93,10.0,WNW,8.1,-,N/A,,Overcast,300,2013-10-21 06:33:00
1:53 AM,35.6,24.8,65,29.93,10.0,WNW,11.5,-,N/A,,Overcast,300,2013-10-21 06:53:00
2:12 AM,35.6,24.8,65,29.94,10.0,WNW,10.4,-,N/A,,Overcast,290,2013-10-21 07:12:00
2:33 AM,35.6,24.8,65,29.94,10.0,WNW,11.5,18.4,N/A,,Overcast,300,2013-10-21 07:33:00
2:53 AM,35.6,24.8,65,29.94,10.0,WNW,11.5,-,N/A,,Overcast,300,2013-10-21 07:53:00
3:12 AM,35.6,24.8,65,29.94,10.0,WNW,15.0,18.4,N/A,,Overcast,300,2013-10-21 08:12:00
3:33 AM,35.6,24.8,65,29.94,10.0,WNW,11.5,21.9,N/A,,Overcast,300,2013-10-21 08:33:00
3:53 AM,35.6,24.8,65,29.94,10.0,NW,9.2,-,N/A,,Overcast,310,2013-10-21 08:53:00
4:12 AM,35.6,23.0,60,29.95,10.0,WNW,12.7,19.6,N/A,,Overcast,300,2013-10-21 09:12:00
4:33 AM,33.8,21.2,60,29.95,10.0,NW,16.1,24.2,N/A,,Overcast,310,2013-10-21 09:33:00
4:52 AM,33.8,21.2,60,29.95,10.0,WNW,12.7,17.3,N/A,,Overcast,300,2013-10-21 09:52:00
5:13 AM,33.8,23.0,65,29.95,10.0,WNW,9.2,-,N/A,,Overcast,300,2013-10-21 10:13:00
5:33 AM,33.8,24.8,70,29.95,10.0,WNW,6.9,-,N/A,,Overcast,300,2013-10-21 10:33:00
5:53 AM,33.8,24.8,70,29.95,10.0,WNW,10.4,18.4,N/A,,Overcast,300,2013-10-21 10:53:00
6:12 AM,33.8,24.8,70,29.95,10.0,WNW,11.5,-,N/A,,Overcast,300,2013-10-21 11:12:00
6:33 AM,33.8,21.2,60,29.95,10.0,WNW,12.7,19.6,N/A,,Overcast,300,2013-10-21 11:33:00
6:53 AM,33.8,19.4,56,29.95,10.0,NW,16.1,23.0,N/A,,Overcast,310,2013-10-21 11:53:00
7:12 AM,33.8,21.2,60,29.95,10.0,WNW,10.4,17.3,N/A,,Overcast,300,2013-10-21 12:12:00
7:33 AM,33.8,23.0,65,29.96,10.0,WNW,18.4,21.9,N/A,,Overcast,300,2013-10-21 12:33:00
7:53 AM,33.8,21.2,60,29.96,10.0,WNW,13.8,21.9,N/A,,Overcast,290,2013-10-21 12:53:00
8:12 AM,33.8,21.2,60,29.96,10.0,WNW,15.0,-,N/A,,Overcast,300,2013-10-21 13:12:00
8:33 AM,33.8,21.2,60,29.96,10.0,WNW,12.7,21.9,N/A,,Overcast,300,2013-10-21 13:33:00
8:53 AM,33.8,21.2,60,29.96,10.0,WNW,15.0,20.7,N/A,,Overcast,300,2013-10-21 13:53:00
9:12 AM,33.8,21.2,60,29.97,10.0,WNW,12.7,18.4,N/A,,Overcast,300,2013-10-21 14:12:00
9:33 AM,33.8,21.2,60,29.97,10.0,WNW,15.0,19.6,N/A,,Overcast,290,2013-10-21 14:33:00
9:53 AM,33.8,19.4,56,29.97,10.0,NW,16.1,23.0,N/A,,Overcast,310,2013-10-21 14:53:00
10:12 AM,33.8,19.4,56,29.97,10.0,NW,15.0,21.9,N/A,,Overcast,310,2013-10-21 15:12:00
10:33 AM,33.8,19.4,56,29.97,10.0,NW,11.5,20.7,N/A,,Overcast,310,2013-10-21 15:33:00
10:52 AM,33.8,21.2,60,29.97,10.0,WNW,12.7,19.6,N/A,,Overcast,290,2013-10-21 15:52:00
11:13 AM,33.8,21.2,60,29.97,10.0,NW,10.4,19.6,N/A,,Overcast,310,2013-10-21 16:13:00
11:32 AM,35.6,21.2,56,29.97,10.0,WNW,12.7,19.6,N/A,,Overcast,290,2013-10-21 16:32:00
11:53 AM,35.6,21.2,56,29.96,10.0,NW,11.5,21.9,N/A,,Overcast,310,2013-10-21 16:53:00
12:13 PM,35.6,21.2,56,29.96,10.0,WNW,16.1,20.7,N/A,,Overcast,300,2013-10-21 17:13:00
12:33 PM,35.6,21.2,56,29.96,10.0,WNW,16.1,23.0,N/A,,Overcast,300,2013-10-21 17:33:00
12:52 PM,35.6,21.2,56,29.96,10.0,WNW,15.0,18.4,N/A,,Overcast,290,2013-10-21 17:52:00
1:12 PM,37.4,23.0,56,29.95,10.0,West,15.0,19.6,N/A,,Overcast,280,2013-10-21 18:12:00
1:33 PM,37.4,23.0,56,29.95,10.0,West,16.1,21.9,N/A,,Overcast,280,2013-10-21 18:33:00
1:52 PM,37.4,23.0,56,29.94,10.0,WNW,15.0,19.6,N/A,,Overcast,300,2013-10-21 18:52:00
2:13 PM,37.4,23.0,56,29.94,10.0,WNW,13.8,21.9,N/A,,Mostly Cloudy,300,2013-10-21 19:13:00
2:32 PM,37.4,23.0,56,29.94,10.0,WNW,15.0,18.4,N/A,,Mostly Cloudy,300,2013-10-21 19:32:00
2:52 PM,37.4,23.0,56,29.94,10.0,West,13.8,21.9,N/A,,Mostly Cloudy,280,2013-10-21 19:52:00
3:13 PM,37.4,23.0,56,29.94,10.0,WNW,12.7,21.9,N/A,,Mostly Cloudy,300,2013-10-21 20:13:00
3:33 PM,39.2,23.0,52,29.94,10.0,WNW,16.1,24.2,N/A,,Overcast,290,2013-10-21 20:33:00
3:52 PM,39.2,23.0,52,29.94,10.0,WNW,12.7,18.4,N/A,,Overcast,290,2013-10-21 20:52:00
4:13 PM,37.4,23.0,56,29.94,10.0,WNW,11.5,-,N/A,,Mostly Cloudy,290,2013-10-21 21:13:00
4:33 PM,39.2,24.8,56,29.95,10.0,West,11.5,16.1,N/A,,Mostly Cloudy,280,2013-10-21 21:33:00
4:52 PM,39.2,24.8,56,29.94,10.0,West,11.5,-,N/A,,Mostly Cloudy,280,2013-10-21 21:52:00
5:13 PM,37.4,24.8,60,29.95,10.0,WNW,11.5,18.4,N/A,,Scattered Clouds,300,2013-10-21 22:13:00
5:33 PM,37.4,24.8,60,29.95,10.0,WNW,10.4,-,N/A,,Clear,290,2013-10-21 22:33:00
5:52 PM,37.4,24.8,60,29.95,10.0,NW,6.9,-,N/A,,Clear,310,2013-10-21 22:52:00
6:13 PM,37.4,24.8,60,29.95,10.0,WNW,6.9,-,N/A,,Clear,300,2013-10-21 23:13:00
6:33 PM,37.4,24.8,60,29.95,10.0,WNW,6.9,-,N/A,,Clear,300,2013-10-21 23:33:00
6:52 PM,35.6,24.8,65,29.96,10.0,WNW,6.9,-,N/A,,Clear,300,2013-10-21 23:52:00
7:13 PM,35.6,24.8,65,29.96,10.0,NW,5.8,-,N/A,,Clear,310,2013-10-22 00:13:00
7:32 PM,35.6,24.8,65,29.96,10.0,WNW,4.6,-,N/A,,Clear,300,2013-10-22 00:32:00
7:53 PM,33.8,24.8,70,29.96,10.0,WNW,4.6,-,N/A,,Clear,290,2013-10-22 00:53:00
8:12 PM,32.0,26.6,80,29.96,10.0,West,3.5,-,N/A,,Clear,280,2013-10-22 01:12:00
8:33 PM,33.8,24.8,70,29.96,10.0,WNW,4.6,-,N/A,,Clear,300,2013-10-22 01:33:00
8:52 PM,33.8,24.8,70,29.96,10.0,WNW,5.8,-,N/A,,Clear,290,2013-10-22 01:52:00
9:13 PM,32.0,26.6,80,29.96,10.0,WNW,3.5,-,N/A,,Clear,290,2013-10-22 02:13:00
9:33 PM,33.8,24.8,70,29.96,10.0,NW,5.8,-,N/A,,Clear,310,2013-10-22 02:33:00
9:53 PM,33.8,24.8,70,29.96,10.0,NW,4.6,-,N/A,,Clear,310,2013-10-22 02:53:00
10:12 PM,30.2,24.8,80,29.96,10.0,NW,4.6,-,N/A,,Clear,320,2013-10-22 03:12:00
10:33 PM,30.2,24.8,80,29.96,10.0,WNW,4.6,-,N/A,,Clear,290,2013-10-22 03:33:00
10:53 PM,30.2,26.6,86,29.96,10.0,West,3.5,-,N/A,,Clear,270,2013-10-22 03:53:00
11:12 PM,30.2,26.6,86,29.96,10.0,NW,4.6,-,N/A,,Clear,310,2013-10-22 04:12:00
11:33 PM,30.2,24.8,80,29.96,10.0,WNW,4.6,-,N/A,,Clear,300,2013-10-22 04:33:00
11:53 PM,32.0,24.8,75,29.96,10.0,WNW,4.6,-,N/A,,Clear,290,2013-10-22 04:53:00